Jerez De La Frontera, Spain

7:24 PM CEST on September 30, 2016 (GMT +0200)
Jerez

Weather History for LEJR - May, 2014

Change the Weather History Date:

Thursday, May 1, 2014

  Actual Average Record
Temperature  
Mean Temperature 74 °F -  
Max Temperature 90 °F 71 °F 90 °F (2014)
Min Temperature 58 °F 51 °F 42 °F (2013)
Cooling Degree Days 9    
Growing Degree Days 24 (Base 50)    
Moisture  
Dew Point 52 °F    
Average Humidity 48    
Maximum Humidity 79    
Minimum Humidity 16    
Precipitation  
Precipitation 0.00 in - - ()
Sea Level Pressure  
Sea Level Pressure 29.93 in    
Wind  
Wind Speed 6 mph ()    
Max Wind Speed 15 mph    
Max Gust Speed 21 mph    
Visibility 8.5 miles    
Events      
Averages and records for this station are not official NWS values.
T = Trace of Precipitation, MM = Missing Value Source: Averaged Metar Reports

Daily Weather History Graph

Daily Weather History Graph

Search for Another Location

Airport or City:

Trip Planner

Search our weather history database for the weather conditions in past years. The results will help you decide how hot, cold, wet, or windy it might be!

Date:

Astronomy

May. 01, 2014 Rise Set
Actual Time 7:30 AM CEST 9:12 PM CEST
Civil Twilight 7:02 AM CEST 9:40 PM CEST
Nautical Twilight 6:29 AM CEST 10:14 PM CEST
Astronomical Twilight 5:53 AM CEST 10:49 PM CEST
Moon 9:08 AM CEST (5/1) 11:32 PM CEST (5/1)
Length of Visible Light 14h 37m
Length of Day
13h 42m
Waxing Crescent, 5% of the Moon is Illuminated
May 1
Waxing Crescent
May 7
First Quarter
May 14
Full
May 21
Last Quarter
May 28
New

Hourly Weather History & Observations

Time (CEST) Temp. Heat Index Dew Point Humidity Pressure Visibility Wind Dir Wind Speed Gust Speed Precip Events Conditions
12:00 AM 66 °F - 58 °F 67% 29.94 in - NNW 3.5 mph - -  
1:00 AM 65 °F - 57 °F 69% 29.95 in - Calm Calm - -  
2:00 AM 63 °F - 58 °F 79% 29.95 in 16 mi Calm Calm - -  
3:00 AM 62 °F - 56 °F 76% 29.95 in - NW 2.3 mph - -  
4:00 AM 61 °F - 55 °F 73% 29.94 in - North 2.3 mph - -  
4:30 AM 60.8 °F - 53.6 °F 77% 29.92 in - Variable 2.3 mph - N/A   Clear
5:00 AM 61 °F - 54 °F 70% 29.92 in - NNW 9.2 mph - -  
5:00 AM 60.8 °F - 53.6 °F 77% 29.92 in - NNW 8.1 mph - N/A   Clear
5:30 AM 60.8 °F - 51.8 °F 72% 29.92 in - NNW 6.9 mph - N/A   Clear
6:00 AM 60 °F - 54 °F 73% 29.92 in - NNW 8.1 mph - -  
6:00 AM 60.8 °F - 53.6 °F 77% 29.92 in - NNW 6.9 mph - N/A   Clear
6:30 AM 59.0 °F - 51.8 °F 77% 29.89 in - NNW 8.1 mph - N/A   Clear
7:00 AM 59 °F - 53 °F 75% 29.91 in - NNW 8.1 mph - -  
7:00 AM 59.0 °F - 51.8 °F 77% 29.89 in - NNW 6.9 mph - N/A   Clear
7:30 AM 59.0 °F - 51.8 °F 77% 29.92 in - NNW 6.9 mph - N/A   Clear
8:00 AM 59 °F - 54 °F 77% 29.92 in 25 mi North 8.1 mph - -   Clear
8:00 AM 59.0 °F - 51.8 °F 77% 29.92 in - North 6.9 mph - N/A   Clear
8:30 AM 62.6 °F - 53.6 °F 72% 29.92 in - North 9.2 mph - N/A   Clear
9:00 AM 65 °F - 55 °F 62% 29.93 in - North 11.5 mph - -  
9:00 AM 64.4 °F - 53.6 °F 68% 29.92 in - North 10.4 mph - N/A   Clear
9:30 AM 66.2 °F - 53.6 °F 64% 29.92 in - North 12.7 mph - N/A   Clear
10:00 AM 70 °F - 56 °F 51% 29.94 in - North 13.8 mph - -  
10:00 AM 68.0 °F - 53.6 °F 60% 29.92 in - North 12.7 mph - N/A   Clear
10:30 AM 71.6 °F - 53.6 °F 53% 29.95 in - North 15.0 mph - N/A   Clear
11:00 AM 75 °F - 56 °F 42% 29.96 in 34 mi North 15.0 mph - -   Clear
11:00 AM 73.4 °F - 53.6 °F 50% 29.95 in - NNE 15.0 mph - N/A   Clear
11:30 AM 77.0 °F - 55.4 °F 47% 29.95 in - NNE 10.4 mph - N/A   Clear
12:00 PM 80 °F - 55 °F 32% 29.96 in - North 11.5 mph - -  
12:00 PM 78.8 °F - 53.6 °F 42% 29.95 in - NNE 11.5 mph - N/A   Clear
12:30 PM 80.6 °F 80.3 °F 53.6 °F 39% 29.95 in - North 6.9 mph - N/A   Clear
1:00 PM 83 °F - 53 °F 25% 29.96 in - North 9.2 mph - -  
1:00 PM 80.6 °F - 50.0 °F 34% 29.95 in - North 9.2 mph - N/A   Clear
1:30 PM 82.4 °F - 50.0 °F 32% 29.95 in - North 5.8 mph - N/A   Clear
2:00 PM 85 °F - 53 °F 23% 29.96 in 37 mi North 8.1 mph - -   Clear
2:00 PM 82.4 °F - 48.2 °F 30% 29.95 in - North 8.1 mph - N/A   Clear
2:30 PM 84.2 °F - 50.0 °F 30% 29.95 in - North 4.6 mph - N/A   Clear
3:00 PM 87 °F - 50 °F 18% 29.95 in - North 5.8 mph - -  
3:00 PM 84.2 °F - 44.6 °F 25% 29.95 in 6.2 mi North 4.6 mph - N/A   Partly Cloudy
3:30 PM 86.0 °F - 42.8 °F 22% 29.95 in 6.2 mi Variable 4.6 mph - N/A   Partly Cloudy
4:00 PM 88 °F - 48 °F 16% 29.94 in - North 2.3 mph - -  
4:00 PM 86.0 °F - 42.8 °F 22% 29.95 in 6.2 mi Variable 1.2 mph - N/A   Partly Cloudy
5:00 PM 90 °F - 52 °F 18% 29.93 in 37 mi North 2.3 mph - -   Scattered Clouds
5:00 PM 87.8 °F - 46.4 °F 24% 29.92 in 6.2 mi Variable 2.3 mph - N/A   Partly Cloudy
5:30 PM 86.0 °F - 46.4 °F 25% 29.92 in 6.2 mi NNE 4.6 mph - N/A   Partly Cloudy
6:00 PM 89 °F - 51 °F 18% 29.92 in - North 4.6 mph - -  
6:00 PM 87.8 °F - 46.4 °F 24% 29.92 in 6.2 mi North 5.8 mph - N/A   Partly Cloudy
6:30 PM 87.8 °F - 46.4 °F 24% 29.92 in 6.2 mi Variable 2.3 mph - N/A   Partly Cloudy
7:00 PM 88 °F - 54 °F 21% 29.91 in - WNW 10.4 mph - -  
7:00 PM 86.0 °F - 50.0 °F 29% 29.89 in 6.2 mi WNW 8.1 mph - N/A   Partly Cloudy
7:30 PM 86.0 °F - 51.8 °F 31% 29.92 in - West 8.1 mph - N/A   Clear
8:00 PM 85 °F - 54 °F 24% 29.91 in 37 mi West 9.2 mph - -   Clear
8:00 PM 84.2 °F - 51.8 °F 33% 29.92 in - West 9.2 mph 20.7 mph N/A   Clear
8:30 PM 82.4 °F - 51.8 °F 35% 29.92 in - West 3.5 mph - N/A   Clear
9:00 PM 79 °F - 55 °F 33% 29.93 in - West 6.9 mph - -  
9:00 PM 78.8 °F - 53.6 °F 42% 29.92 in - West 6.9 mph 19.6 mph N/A   Clear
9:30 PM 75.2 °F - 53.6 °F 47% 29.92 in - Variable 1.2 mph - N/A   Clear
10:00 PM 73 °F - 56 °F 44% 29.95 in - West 1.2 mph - -  
10:00 PM 71.6 °F - 53.6 °F 53% 29.95 in - Variable 1.2 mph - N/A   Clear
10:30 PM 71.6 °F - 53.6 °F 53% 29.95 in - Calm Calm - N/A   Clear
11:00 PM 69 °F - 56 °F 55% 29.96 in 19 mi Calm Calm - -  
11:00 PM 68.0 °F - 55.4 °F 64% 29.95 in - Calm Calm - N/A   Clear